Time,TemperatureF,DewpointF,PressureIn,WindDirection,WindDirectionDegrees,WindSpeedMPH,WindSpeedGustMPH,Humidity,HourlyPrecipIn,Conditions,Clouds,dailyrainin,SoftwareType,DateUTC
2013-02-23 00:01:00,27.3,19.8,29.14,West,270,7.6,7.6,73,0.00,,---,0.00,VWS V14.01,2013-02-23 06:01:00,
2013-02-23 00:06:00,27.3,19.8,29.14,WSW,248,5.4,5.6,73,0.00,,---,0.00,VWS V14.01,2013-02-23 06:06:00,
2013-02-23 00:11:00,27.3,19.8,29.14,SW,225,7.8,7.8,73,0.00,,---,0.00,VWS V14.01,2013-02-23 06:11:00,
2013-02-23 00:16:00,27.3,19.8,29.14,WSW,248,3.4,3.4,73,0.00,,---,0.00,VWS V14.01,2013-02-23 06:16:00,
2013-02-23 00:21:00,27.3,19.8,29.14,SW,225,4.3,4.3,73,0.00,,---,0.00,VWS V14.01,2013-02-23 06:21:00,
2013-02-23 00:26:00,27.3,20.1,29.14,SW,225,9.0,9.0,74,0.00,,---,0.00,VWS V14.01,2013-02-23 06:26:00,
2013-02-23 00:31:00,27.1,19.6,29.14,West,270,4.9,4.9,73,0.00,,---,0.00,VWS V14.01,2013-02-23 06:31:00,
2013-02-23 00:36:00,27.1,19.6,29.14,SSW,202,2.9,4.3,73,0.00,,---,0.00,VWS V14.01,2013-02-23 06:36:00,
2013-02-23 00:41:00,27.1,19.6,29.14,West,270,4.3,5.8,73,0.00,,---,0.00,VWS V14.01,2013-02-23 06:41:00,
2013-02-23 00:46:00,27.0,19.5,29.14,WSW,248,4.9,4.9,73,0.00,,---,0.00,VWS V14.01,2013-02-23 06:46:00,
2013-02-23 00:51:00,27.0,19.1,29.14,WSW,248,3.4,5.4,72,0.00,,---,0.00,VWS V14.01,2013-02-23 06:51:00,
2013-02-23 00:56:00,27.0,19.1,29.14,WNW,292,6.3,6.3,72,0.00,,---,0.00,VWS V14.01,2013-02-23 06:56:00,
2013-02-23 01:02:00,27.0,19.1,29.14,WNW,292,3.6,4.0,72,0.00,,---,0.00,VWS V14.01,2013-02-23 07:02:00,
2013-02-23 01:07:00,27.0,19.1,29.14,WSW,248,8.1,8.1,72,0.00,,---,0.00,VWS V14.01,2013-02-23 07:07:00,
2013-02-23 01:12:00,26.8,19.0,29.14,West,270,2.9,2.9,72,0.00,,---,0.00,VWS V14.01,2013-02-23 07:12:00,
2013-02-23 01:17:00,26.8,19.0,29.14,West,270,7.2,7.2,72,0.00,,---,0.00,VWS V14.01,2013-02-23 07:17:00,
2013-02-23 01:22:00,26.8,18.6,29.14,SW,225,2.9,2.9,71,0.00,,---,0.00,VWS V14.01,2013-02-23 07:22:00,
2013-02-23 01:27:00,26.8,18.6,29.14,WSW,248,6.0,6.0,71,0.00,,---,0.00,VWS V14.01,2013-02-23 07:27:00,
2013-02-23 01:32:00,26.8,19.0,29.14,West,270,5.4,5.4,72,0.00,,---,0.00,VWS V14.01,2013-02-23 07:32:00,
2013-02-23 01:37:00,26.6,18.8,29.14,WSW,248,5.6,5.6,72,0.00,,---,0.00,VWS V14.01,2013-02-23 07:37:00,
2013-02-23 01:42:00,26.8,19.0,29.14,West,270,3.4,3.4,72,0.00,,---,0.00,VWS V14.01,2013-02-23 07:42:00,
2013-02-23 01:47:00,26.6,18.8,29.14,WSW,248,7.4,7.4,72,0.00,,---,0.00,VWS V14.01,2013-02-23 07:47:00,
2013-02-23 01:52:00,26.6,18.8,29.14,WNW,292,1.3,2.9,72,0.00,,---,0.00,VWS V14.01,2013-02-23 07:52:00,
2013-02-23 01:58:00,26.6,18.8,29.14,West,270,4.3,7.4,72,0.00,,---,0.00,VWS V14.01,2013-02-23 07:58:00,
2013-02-23 02:03:00,26.4,18.6,29.14,WSW,248,7.4,7.4,72,0.00,,---,0.00,VWS V14.01,2013-02-23 08:03:00,
2013-02-23 02:08:00,26.6,18.8,29.14,WSW,248,3.6,3.6,72,0.00,,---,0.00,VWS V14.01,2013-02-23 08:08:00,
2013-02-23 02:13:00,26.4,18.6,29.14,NNE,22,5.4,5.4,72,0.00,,---,0.00,VWS V14.01,2013-02-23 08:13:00,
2013-02-23 02:18:00,26.4,18.6,29.14,West,270,3.6,3.6,72,0.00,,---,0.00,VWS V14.01,2013-02-23 08:18:00,
2013-02-23 02:23:00,26.2,18.5,29.14,West,270,5.6,5.6,72,0.00,,---,0.00,VWS V14.01,2013-02-23 08:23:00,
2013-02-23 02:28:00,26.2,18.1,29.14,SW,225,6.7,8.1,71,0.00,,---,0.00,VWS V14.01,2013-02-23 08:28:00,
2013-02-23 02:33:00,26.2,18.1,29.14,West,270,4.9,4.9,71,0.00,,---,0.00,VWS V14.01,2013-02-23 08:33:00,
2013-02-23 02:38:00,26.1,17.6,29.14,WSW,248,6.3,7.2,70,0.00,,---,0.00,VWS V14.01,2013-02-23 08:38:00,
2013-02-23 02:43:00,26.1,17.6,29.14,West,270,7.8,7.8,70,0.00,,---,0.00,VWS V14.01,2013-02-23 08:43:00,
2013-02-23 02:48:00,25.9,17.1,29.14,West,270,3.8,9.0,69,0.00,,---,0.00,VWS V14.01,2013-02-23 08:48:00,
2013-02-23 02:53:00,25.9,17.5,29.14,West,270,6.0,6.0,70,0.00,,---,0.00,VWS V14.01,2013-02-23 08:53:00,
2013-02-23 02:58:00,25.9,17.1,29.14,WNW,292,6.5,7.4,69,0.00,,---,0.00,VWS V14.01,2013-02-23 08:58:00,
2013-02-23 03:04:00,25.9,17.1,29.14,WSW,248,4.3,4.3,69,0.00,,---,0.00,VWS V14.01,2013-02-23 09:04:00,
2013-02-23 03:09:00,26.1,17.6,29.14,West,270,2.9,3.6,70,0.00,,---,0.00,VWS V14.01,2013-02-23 09:09:00,
2013-02-23 03:14:00,25.7,17.0,29.12,West,270,2.9,3.8,69,0.00,,---,0.00,VWS V14.01,2013-02-23 09:14:00,
2013-02-23 03:19:00,25.7,17.0,29.12,WSW,248,6.0,6.0,69,0.00,,---,0.00,VWS V14.01,2013-02-23 09:19:00,
2013-02-23 03:24:00,25.5,16.4,29.12,West,270,6.0,10.5,68,0.00,,---,0.00,VWS V14.01,2013-02-23 09:24:00,
2013-02-23 03:29:00,25.5,16.4,29.12,WSW,248,3.1,3.1,68,0.00,,---,0.00,VWS V14.01,2013-02-23 09:29:00,
2013-02-23 03:34:00,25.5,16.4,29.12,WSW,248,5.4,5.4,68,0.00,,---,0.00,VWS V14.01,2013-02-23 09:34:00,
2013-02-23 03:39:00,25.5,16.4,29.12,WSW,248,6.5,7.4,68,0.00,,---,0.00,VWS V14.01,2013-02-23 09:39:00,
2013-02-23 03:44:00,25.3,15.9,29.12,West,270,7.6,7.6,67,0.00,,---,0.00,VWS V14.01,2013-02-23 09:44:00,
2013-02-23 03:49:00,25.5,16.4,29.12,West,270,8.5,8.5,68,0.00,,---,0.00,VWS V14.01,2013-02-23 09:49:00,
2013-02-23 03:54:00,25.5,16.4,29.12,West,270,3.6,3.6,68,0.00,,---,0.00,VWS V14.01,2013-02-23 09:54:00,
2013-02-23 03:59:00,25.5,16.4,29.12,WSW,248,5.4,5.6,68,0.00,,---,0.00,VWS V14.01,2013-02-23 09:59:00,
2013-02-23 04:04:00,25.5,16.8,29.12,WSW,248,4.0,4.0,69,0.00,,---,0.00,VWS V14.01,2013-02-23 10:04:00,
2013-02-23 04:10:00,25.5,16.8,29.12,SW,225,4.0,4.7,69,0.00,,---,0.00,VWS V14.01,2013-02-23 10:10:00,
2013-02-23 04:15:00,25.5,17.1,29.12,SSW,202,2.2,2.2,70,0.00,,---,0.00,VWS V14.01,2013-02-23 10:15:00,
2013-02-23 04:20:00,25.3,16.9,29.14,SW,225,4.3,4.3,70,0.00,,---,0.00,VWS V14.01,2013-02-23 10:20:00,
2013-02-23 04:25:00,25.3,16.9,29.14,SSW,202,6.0,6.3,70,0.00,,---,0.00,VWS V14.01,2013-02-23 10:25:00,
2013-02-23 04:30:00,25.3,16.9,29.14,West,270,12.1,12.1,70,0.00,,---,0.00,VWS V14.01,2013-02-23 10:30:00,
2013-02-23 04:35:00,25.3,16.9,29.12,WSW,248,2.7,2.7,70,0.00,,---,0.00,VWS V14.01,2013-02-23 10:35:00,
2013-02-23 04:40:00,25.3,16.6,29.12,West,270,5.6,5.6,69,0.00,,---,0.00,VWS V14.01,2013-02-23 10:40:00,
2013-02-23 04:45:00,25.3,16.6,29.12,WSW,248,2.0,2.0,69,0.00,,---,0.00,VWS V14.01,2013-02-23 10:45:00,
2013-02-23 04:50:00,25.3,16.6,29.12,West,270,7.4,7.4,69,0.00,,---,0.00,VWS V14.01,2013-02-23 10:50:00,
2013-02-23 04:55:00,25.2,16.4,29.12,WSW,248,3.6,3.6,69,0.00,,---,0.00,VWS V14.01,2013-02-23 10:55:00,
2013-02-23 05:00:00,25.2,16.4,29.12,WNW,292,4.0,4.3,69,0.00,,---,0.00,VWS V14.01,2013-02-23 11:00:00,
2013-02-23 05:05:00,25.2,16.4,29.12,West,270,8.1,8.1,69,0.00,,---,0.00,VWS V14.01,2013-02-23 11:05:00,
2013-02-23 05:10:00,25.2,16.4,29.12,WSW,248,2.7,2.7,69,0.00,,---,0.00,VWS V14.01,2013-02-23 11:10:00,
2013-02-23 05:15:00,25.0,16.3,29.12,West,270,2.5,2.7,69,0.00,,---,0.00,VWS V14.01,2013-02-23 11:15:00,
2013-02-23 05:20:00,25.0,16.3,29.14,West,270,5.4,5.4,69,0.00,,---,0.00,VWS V14.01,2013-02-23 11:20:00,
2013-02-23 05:25:00,25.2,16.4,29.14,WSW,248,5.4,5.6,69,0.00,,---,0.00,VWS V14.01,2013-02-23 11:25:00,
2013-02-23 05:30:00,25.0,16.3,29.14,WSW,248,4.0,5.4,69,0.00,,---,0.00,VWS V14.01,2013-02-23 11:30:00,
2013-02-23 05:36:00,25.0,16.6,29.14,West,270,4.0,4.0,70,0.00,,---,0.00,VWS V14.01,2013-02-23 11:36:00,
2013-02-23 05:41:00,25.0,16.6,29.14,WSW,248,3.6,3.6,70,0.00,,---,0.00,VWS V14.01,2013-02-23 11:41:00,
2013-02-23 05:46:00,24.8,16.4,29.14,West,270,3.1,3.1,70,0.00,,---,0.00,VWS V14.01,2013-02-23 11:46:00,
2013-02-23 05:51:00,24.8,16.4,29.14,West,270,3.8,6.5,70,0.00,,---,0.00,VWS V14.01,2013-02-23 11:51:00,
2013-02-23 05:56:00,24.8,16.4,29.14,WNW,292,8.1,8.1,70,0.00,,---,0.00,VWS V14.01,2013-02-23 11:56:00,
2013-02-23 06:01:00,24.8,16.4,29.14,SW,225,4.0,4.0,70,0.00,,---,0.00,VWS V14.01,2013-02-23 12:01:00,
2013-02-23 06:06:00,24.6,16.2,29.14,SW,225,3.6,3.6,70,0.00,,---,0.00,VWS V14.01,2013-02-23 12:06:00,
2013-02-23 06:11:00,24.6,15.9,29.14,NW,315,3.6,3.6,69,0.00,,---,0.00,VWS V14.01,2013-02-23 12:11:00,
2013-02-23 06:16:00,24.8,16.4,29.14,WSW,248,2.5,2.5,70,0.00,,---,0.00,VWS V14.01,2013-02-23 12:16:00,
2013-02-23 06:21:00,24.6,16.2,29.14,WNW,292,6.0,6.0,70,0.00,,---,0.00,VWS V14.01,2013-02-23 12:21:00,
2013-02-23 06:26:00,24.6,15.9,29.14,West,270,2.5,5.4,69,0.00,,---,0.00,VWS V14.01,2013-02-23 12:26:00,
2013-02-23 06:32:00,24.4,15.7,29.14,West,270,7.6,7.8,69,0.00,,---,0.00,VWS V14.01,2013-02-23 12:32:00,
2013-02-23 06:37:00,24.4,15.7,29.14,SSW,202,2.2,2.2,69,0.00,,---,0.00,VWS V14.01,2013-02-23 12:37:00,
2013-02-23 06:42:00,24.4,16.1,29.14,SW,225,6.0,6.0,70,0.00,,---,0.00,VWS V14.01,2013-02-23 12:42:00,
2013-02-23 06:47:00,24.4,16.1,29.14,WSW,248,3.8,3.8,70,0.00,,---,0.00,VWS V14.01,2013-02-23 12:47:00,
2013-02-23 06:52:00,24.4,16.1,29.14,West,270,4.3,7.4,70,0.00,,---,0.00,VWS V14.01,2013-02-23 12:52:00,
2013-02-23 06:57:00,24.4,16.1,29.14,West,270,3.6,3.6,70,0.00,,---,0.00,VWS V14.01,2013-02-23 12:57:00,
2013-02-23 07:02:00,24.4,16.1,29.14,West,270,6.0,6.0,70,0.00,,---,0.00,VWS V14.01,2013-02-23 13:02:00,
2013-02-23 07:07:00,24.4,16.1,29.14,West,270,4.7,5.4,70,0.00,,---,0.00,VWS V14.01,2013-02-23 13:07:00,
2013-02-23 07:12:00,24.4,16.1,29.14,WSW,248,5.8,5.8,70,0.00,,---,0.00,VWS V14.01,2013-02-23 13:12:00,
2013-02-23 07:17:00,24.4,16.1,29.14,West,270,4.3,4.3,70,0.00,,---,0.00,VWS V14.01,2013-02-23 13:17:00,
2013-02-23 07:22:00,24.4,15.7,29.14,SW,225,6.0,6.0,69,0.00,,---,0.00,VWS V14.01,2013-02-23 13:22:00,
2013-02-23 07:27:00,24.4,15.7,29.14,West,270,5.6,5.6,69,0.00,,---,0.00,VWS V14.01,2013-02-23 13:27:00,
2013-02-23 07:32:00,24.4,15.7,29.14,SW,225,4.3,5.6,69,0.00,,---,0.00,VWS V14.01,2013-02-23 13:32:00,
2013-02-23 07:37:00,24.6,16.2,29.14,West,270,4.9,4.9,70,0.00,,---,0.00,VWS V14.01,2013-02-23 13:37:00,
2013-02-23 07:42:00,24.4,15.7,29.14,WSW,248,2.5,4.7,69,0.00,,---,0.00,VWS V14.01,2013-02-23 13:42:00,
2013-02-23 07:47:00,24.4,15.7,29.14,SW,225,6.5,6.5,69,0.00,,---,0.00,VWS V14.01,2013-02-23 13:47:00,
2013-02-23 07:52:00,24.6,15.9,29.14,West,270,4.3,4.3,69,0.00,,---,0.00,VWS V14.01,2013-02-23 13:52:00,
2013-02-23 07:57:00,24.8,16.1,29.14,WSW,248,7.8,7.8,69,0.00,,---,0.00,VWS V14.01,2013-02-23 13:57:00,
2013-02-23 08:02:00,24.6,15.9,29.14,NW,315,5.8,8.5,69,0.00,,---,0.00,VWS V14.01,2013-02-23 14:02:00,
2013-02-23 08:08:00,24.6,15.9,29.14,NNW,338,7.6,7.6,69,0.00,,---,0.00,VWS V14.01,2013-02-23 14:08:00,
2013-02-23 08:13:00,24.6,15.6,29.14,SW,225,4.3,7.4,68,0.00,,---,0.00,VWS V14.01,2013-02-23 14:13:00,
2013-02-23 08:18:00,24.8,16.1,29.14,West,270,4.9,4.9,69,0.00,,---,0.00,VWS V14.01,2013-02-23 14:18:00,
2013-02-23 08:23:00,24.8,16.1,29.14,West,270,4.3,4.3,69,0.00,,---,0.00,VWS V14.01,2013-02-23 14:23:00,
2013-02-23 08:28:00,24.8,16.1,29.14,WSW,248,8.7,8.7,69,0.00,,---,0.00,VWS V14.01,2013-02-23 14:28:00,
2013-02-23 08:33:00,24.8,16.1,29.14,WNW,292,3.6,3.6,69,0.00,,---,0.00,VWS V14.01,2013-02-23 14:33:00,
2013-02-23 08:38:00,25.0,15.9,29.14,West,270,5.4,5.4,68,0.00,,---,0.00,VWS V14.01,2013-02-23 14:38:00,
2013-02-23 08:43:00,25.0,15.9,29.14,WNW,292,5.6,5.6,68,0.00,,---,0.00,VWS V14.01,2013-02-23 14:43:00,
2013-02-23 08:48:00,25.2,16.1,29.14,West,270,7.2,7.2,68,0.00,,---,0.00,VWS V14.01,2013-02-23 14:48:00,
2013-02-23 08:53:00,25.2,16.1,29.14,WSW,248,3.1,7.2,68,0.00,,---,0.00,VWS V14.01,2013-02-23 14:53:00,
2013-02-23 08:58:00,25.3,15.9,29.14,SW,225,5.8,5.8,67,0.00,,---,0.00,VWS V14.01,2013-02-23 14:58:00,
2013-02-23 09:03:00,25.2,15.8,29.14,WNW,292,7.8,7.8,67,0.00,,---,0.00,VWS V14.01,2013-02-23 15:03:00,
2013-02-23 09:08:00,25.3,15.9,29.14,WSW,248,5.4,5.4,67,0.00,,---,0.00,VWS V14.01,2013-02-23 15:08:00,
2013-02-23 09:13:00,25.7,16.6,29.14,West,270,3.1,4.3,68,0.00,,---,0.00,VWS V14.01,2013-02-23 15:13:00,
2013-02-23 09:19:00,26.1,17.0,29.14,West,270,5.8,5.8,68,0.00,,---,0.00,VWS V14.01,2013-02-23 15:19:00,
2013-02-23 09:24:00,25.9,16.5,29.14,West,270,4.9,4.9,67,0.00,,---,0.00,VWS V14.01,2013-02-23 15:24:00,
2013-02-23 09:29:00,25.9,16.5,29.14,WSW,248,2.5,2.5,67,0.00,,---,0.00,VWS V14.01,2013-02-23 15:29:00,
2013-02-23 09:34:00,26.1,17.0,29.14,SSW,202,4.3,5.6,68,0.00,,---,0.00,VWS V14.01,2013-02-23 15:34:00,
2013-02-23 09:39:00,26.1,17.0,29.14,West,270,4.9,4.9,68,0.00,,---,0.00,VWS V14.01,2013-02-23 15:39:00,
2013-02-23 09:44:00,26.1,17.0,29.14,WNW,292,2.5,2.5,68,0.00,,---,0.00,VWS V14.01,2013-02-23 15:44:00,
2013-02-23 09:49:00,26.1,16.6,29.14,SW,225,4.9,4.9,67,0.00,,---,0.00,VWS V14.01,2013-02-23 15:49:00,
2013-02-23 09:54:00,26.2,16.8,29.14,WNW,292,2.5,5.8,67,0.00,,---,0.00,VWS V14.01,2013-02-23 15:54:00,
2013-02-23 09:59:00,26.2,16.8,29.14,WSW,248,4.0,4.0,67,0.00,,---,0.00,VWS V14.01,2013-02-23 15:59:00,
2013-02-23 10:04:00,26.8,17.3,29.14,West,270,7.4,7.4,67,0.00,,---,0.00,VWS V14.01,2013-02-23 16:04:00,
2013-02-23 10:09:00,26.8,17.0,29.14,WSW,248,5.4,6.0,66,0.00,,---,0.00,VWS V14.01,2013-02-23 16:09:00,
2013-02-23 10:14:00,27.0,17.5,29.14,West,270,4.3,4.3,67,0.00,,---,0.00,VWS V14.01,2013-02-23 16:14:00,
2013-02-23 10:19:00,27.3,17.5,29.14,WNW,292,7.8,7.8,66,0.00,,---,0.00,VWS V14.01,2013-02-23 16:19:00,
2013-02-23 10:24:00,27.5,17.6,29.14,WSW,248,3.4,3.4,66,0.00,,---,0.00,VWS V14.01,2013-02-23 16:24:00,
2013-02-23 10:29:00,27.9,18.0,29.14,WNW,292,4.9,4.9,66,0.00,,---,0.00,VWS V14.01,2013-02-23 16:29:00,
2013-02-23 10:34:00,27.9,18.0,29.14,West,270,5.6,8.5,66,0.00,,---,0.00,VWS V14.01,2013-02-23 16:34:00,
2013-02-23 10:40:00,28.4,18.1,29.14,North,0,3.4,3.4,65,0.00,,---,0.00,VWS V14.01,2013-02-23 16:40:00,
2013-02-23 10:45:00,28.4,18.1,29.14,NW,315,4.0,4.0,65,0.00,,---,0.00,VWS V14.01,2013-02-23 16:45:00,
2013-02-23 10:50:00,28.8,18.5,29.14,WNW,292,3.6,4.0,65,0.00,,---,0.00,VWS V14.01,2013-02-23 16:50:00,
2013-02-23 10:55:00,29.1,18.8,29.14,West,270,6.0,7.4,65,0.00,,---,0.00,VWS V14.01,2013-02-23 16:55:00,
2013-02-23 11:00:00,29.1,18.1,29.14,NW,315,3.4,8.5,63,0.00,,---,0.00,VWS V14.01,2013-02-23 17:00:00,
2013-02-23 11:05:00,29.3,18.3,29.14,WSW,248,5.6,5.6,63,0.00,,---,0.00,VWS V14.01,2013-02-23 17:05:00,
2013-02-23 11:10:00,29.5,18.8,29.14,West,270,3.8,3.8,64,0.00,,---,0.00,VWS V14.01,2013-02-23 17:10:00,
2013-02-23 11:15:00,29.7,19.0,29.14,SSW,202,3.8,3.8,64,0.00,,---,0.00,VWS V14.01,2013-02-23 17:15:00,
2013-02-23 11:20:00,30.0,19.3,29.14,SSW,202,4.0,6.0,64,0.00,,---,0.00,VWS V14.01,2013-02-23 17:20:00,
2013-02-23 11:25:00,30.2,19.5,29.14,SSW,202,2.9,7.2,64,0.00,,---,0.00,VWS V14.01,2013-02-23 17:25:00,
2013-02-23 11:30:00,30.2,19.5,29.14,West,270,6.5,6.5,64,0.00,,---,0.00,VWS V14.01,2013-02-23 17:30:00,
2013-02-23 11:35:00,30.4,19.7,29.14,SW,225,7.2,7.2,64,0.00,,---,0.00,VWS V14.01,2013-02-23 17:35:00,
2013-02-23 11:41:00,30.2,19.5,29.14,West,270,8.5,8.5,64,0.00,,---,0.00,VWS V14.01,2013-02-23 17:41:00,
2013-02-23 11:46:00,30.2,19.1,29.14,NW,315,2.9,2.9,63,0.00,,---,0.00,VWS V14.01,2013-02-23 17:46:00,
2013-02-23 11:51:00,30.4,19.3,29.14,WSW,248,5.6,5.6,63,0.00,,---,0.00,VWS V14.01,2013-02-23 17:51:00,
2013-02-23 11:56:00,30.6,19.5,29.14,West,270,3.8,3.8,63,0.00,,---,0.00,VWS V14.01,2013-02-23 17:56:00,
2013-02-23 12:01:00,30.6,19.5,29.14,WSW,248,6.3,6.3,63,0.00,,---,0.00,VWS V14.01,2013-02-23 18:01:00,
2013-02-23 12:06:00,30.9,19.8,29.14,South,180,3.1,5.8,63,0.00,,---,0.00,VWS V14.01,2013-02-23 18:06:00,
2013-02-23 12:11:00,31.1,20.0,29.14,SW,225,6.3,6.3,63,0.00,,---,0.00,VWS V14.01,2013-02-23 18:11:00,
2013-02-23 12:16:00,31.1,20.0,29.14,WSW,248,4.9,7.6,63,0.00,,---,0.00,VWS V14.01,2013-02-23 18:16:00,
2013-02-23 12:21:00,31.5,20.3,29.12,WSW,248,2.7,7.4,63,0.00,,---,0.00,VWS V14.01,2013-02-23 18:21:00,
2013-02-23 12:26:00,31.6,20.5,29.12,SSW,202,2.5,3.6,63,0.00,,---,0.00,VWS V14.01,2013-02-23 18:26:00,
2013-02-23 12:31:00,31.6,20.5,29.12,West,270,4.9,4.9,63,0.00,,---,0.00,VWS V14.01,2013-02-23 18:31:00,
2013-02-23 12:36:00,31.5,20.3,29.12,SW,225,3.6,6.9,63,0.00,,---,0.00,VWS V14.01,2013-02-23 18:36:00,
2013-02-23 12:42:00,31.8,20.3,29.12,WSW,248,7.8,7.8,62,0.00,,---,0.00,VWS V14.01,2013-02-23 18:42:00,
2013-02-23 12:47:00,31.6,20.1,29.12,NNW,338,1.6,1.6,62,0.00,,---,0.00,VWS V14.01,2013-02-23 18:47:00,
2013-02-23 12:52:00,32.9,21.3,29.12,SW,225,5.8,5.8,62,0.00,,---,0.00,VWS V14.01,2013-02-23 18:52:00,
2013-02-23 12:57:00,32.4,20.8,29.12,West,270,3.4,3.8,62,0.00,,---,0.00,VWS V14.01,2013-02-23 18:57:00,
2013-02-23 13:02:00,32.2,20.6,29.12,SW,225,2.9,2.9,62,0.00,,---,0.00,VWS V14.01,2013-02-23 19:02:00,
2013-02-23 13:07:00,32.0,20.5,29.12,West,270,4.3,6.5,62,0.00,,---,0.00,VWS V14.01,2013-02-23 19:07:00,
2013-02-23 13:12:00,31.6,19.4,29.12,WNW,292,4.9,4.9,60,0.00,,---,0.00,VWS V14.01,2013-02-23 19:12:00,
2013-02-23 13:17:00,31.8,19.9,29.12,WNW,292,6.3,6.3,61,0.00,,---,0.00,VWS V14.01,2013-02-23 19:17:00,
2013-02-23 13:22:00,32.4,20.8,29.12,West,270,4.3,4.3,62,0.00,,---,0.00,VWS V14.01,2013-02-23 19:22:00,
2013-02-23 13:27:00,32.4,20.8,29.12,WNW,292,3.8,3.8,62,0.00,,---,0.00,VWS V14.01,2013-02-23 19:27:00,
2013-02-23 13:32:00,32.9,21.3,29.12,WSW,248,2.5,2.5,62,0.00,,---,0.00,VWS V14.01,2013-02-23 19:32:00,
2013-02-23 13:37:00,33.1,21.5,29.12,WSW,248,2.9,3.8,62,0.00,,---,0.00,VWS V14.01,2013-02-23 19:37:00,
2013-02-23 13:42:00,33.1,21.5,29.12,WSW,248,2.9,3.4,62,0.00,,---,0.00,VWS V14.01,2013-02-23 19:42:00,
2013-02-23 13:47:00,33.4,21.8,29.12,WSW,248,4.3,4.3,62,0.00,,---,0.00,VWS V14.01,2013-02-23 19:47:00,
2013-02-23 13:52:00,33.4,21.8,29.12,West,270,3.1,4.3,62,0.00,,---,0.00,VWS V14.01,2013-02-23 19:52:00,
2013-02-23 13:57:00,33.6,22.4,29.12,SSW,202,5.6,5.6,63,0.00,,---,0.00,VWS V14.01,2013-02-23 19:57:00,
2013-02-23 14:03:00,32.9,20.9,29.12,West,270,3.6,3.6,61,0.00,,---,0.00,VWS V14.01,2013-02-23 20:03:00,
2013-02-23 14:08:00,32.9,20.9,29.12,West,270,3.4,3.4,61,0.00,,---,0.00,VWS V14.01,2013-02-23 20:08:00,
2013-02-23 14:13:00,33.1,21.1,29.12,West,270,3.4,3.4,61,0.00,,---,0.00,VWS V14.01,2013-02-23 20:13:00,
2013-02-23 14:18:00,33.1,21.1,29.12,West,270,3.6,3.6,61,0.00,,---,0.00,VWS V14.01,2013-02-23 20:18:00,
2013-02-23 14:23:00,33.1,21.1,29.12,WSW,248,5.6,5.6,61,0.00,,---,0.00,VWS V14.01,2013-02-23 20:23:00,
2013-02-23 14:28:00,33.4,21.5,29.12,West,270,4.9,4.9,61,0.00,,---,0.00,VWS V14.01,2013-02-23 20:28:00,
2013-02-23 14:33:00,33.3,21.3,29.12,SSW,202,3.6,4.0,61,0.00,,---,0.00,VWS V14.01,2013-02-23 20:33:00,
2013-02-23 14:38:00,33.6,21.6,29.12,SSW,202,8.1,8.1,61,0.00,,---,0.00,VWS V14.01,2013-02-23 20:38:00,
2013-02-23 14:43:00,33.3,21.3,29.12,SSW,202,2.5,3.1,61,0.00,,---,0.00,VWS V14.01,2013-02-23 20:43:00,
2013-02-23 14:48:00,33.3,21.3,29.12,WSW,248,6.3,7.6,61,0.00,,---,0.00,VWS V14.01,2013-02-23 20:48:00,
2013-02-23 14:53:00,33.1,20.7,29.12,WSW,248,4.9,4.9,60,0.00,,---,0.00,VWS V14.01,2013-02-23 20:53:00,
2013-02-23 14:58:00,33.1,21.1,29.12,WSW,248,2.5,6.0,61,0.00,,---,0.00,VWS V14.01,2013-02-23 20:58:00,
2013-02-23 15:03:00,32.9,20.5,29.12,SW,225,10.1,10.1,60,0.00,,---,0.00,VWS V14.01,2013-02-23 21:03:00,
2013-02-23 15:09:00,32.9,20.5,29.12,SW,225,4.3,4.3,60,0.00,,---,0.00,VWS V14.01,2013-02-23 21:09:00,
2013-02-23 15:14:00,32.9,20.5,29.12,WSW,248,4.9,4.9,60,0.00,,---,0.00,VWS V14.01,2013-02-23 21:14:00,
2013-02-23 15:19:00,32.7,20.4,29.12,West,270,6.0,6.0,60,0.00,,---,0.00,VWS V14.01,2013-02-23 21:19:00,
2013-02-23 15:24:00,32.9,20.5,29.12,SW,225,3.1,3.1,60,0.00,,---,0.00,VWS V14.01,2013-02-23 21:24:00,
2013-02-23 15:29:00,32.9,20.5,29.12,SW,225,3.6,3.6,60,0.00,,---,0.00,VWS V14.01,2013-02-23 21:29:00,
2013-02-23 15:34:00,32.9,20.5,29.12,WSW,248,6.3,6.3,60,0.00,,---,0.00,VWS V14.01,2013-02-23 21:34:00,
2013-02-23 15:39:00,32.7,20.0,29.12,SW,225,4.3,4.3,59,0.00,,---,0.00,VWS V14.01,2013-02-23 21:39:00,
2013-02-23 15:44:00,32.7,20.4,29.12,SW,225,2.9,4.3,60,0.00,,---,0.00,VWS V14.01,2013-02-23 21:44:00,
2013-02-23 15:49:00,32.7,20.4,29.12,SW,225,9.4,9.4,60,0.00,,---,0.00,VWS V14.01,2013-02-23 21:49:00,
2013-02-23 15:54:00,32.5,20.2,29.12,SSW,202,3.8,5.6,60,0.00,,---,0.00,VWS V14.01,2013-02-23 21:54:00,
2013-02-23 15:59:00,32.7,20.4,29.12,SW,225,6.3,6.3,60,0.00,,---,0.00,VWS V14.01,2013-02-23 21:59:00,
2013-02-23 16:04:00,32.5,20.2,29.12,WSW,248,4.7,4.7,60,0.00,,---,0.00,VWS V14.01,2013-02-23 22:04:00,
2013-02-23 16:09:00,32.5,20.2,29.12,West,270,3.4,3.6,60,0.00,,---,0.00,VWS V14.01,2013-02-23 22:09:00,
2013-02-23 16:14:00,32.4,20.0,29.12,NW,315,4.0,4.0,60,0.00,,---,0.00,VWS V14.01,2013-02-23 22:14:00,
2013-02-23 16:19:00,32.0,19.7,29.12,SW,225,4.7,5.4,60,0.00,,---,0.00,VWS V14.01,2013-02-23 22:19:00,
2013-02-23 16:24:00,32.2,19.9,29.12,SW,225,5.4,5.8,60,0.00,,---,0.00,VWS V14.01,2013-02-23 22:24:00,
2013-02-23 16:30:00,32.0,19.7,29.12,SSW,202,2.7,2.9,60,0.00,,---,0.00,VWS V14.01,2013-02-23 22:30:00,
2013-02-23 16:35:00,32.0,19.7,29.12,SW,225,7.8,7.8,60,0.00,,---,0.00,VWS V14.01,2013-02-23 22:35:00,
2013-02-23 16:40:00,31.8,19.5,29.12,SW,225,6.3,6.3,60,0.00,,---,0.00,VWS V14.01,2013-02-23 22:40:00,
2013-02-23 16:45:00,31.6,19.4,29.12,WSW,248,4.3,4.3,60,0.00,,---,0.00,VWS V14.01,2013-02-23 22:45:00,
2013-02-23 16:50:00,31.6,19.4,29.12,SW,225,3.4,3.4,60,0.00,,---,0.00,VWS V14.01,2013-02-23 22:50:00,
2013-02-23 16:55:00,31.3,19.0,29.12,SW,225,3.4,3.6,60,0.00,,---,0.00,VWS V14.01,2013-02-23 22:55:00,
2013-02-23 17:00:00,31.3,19.0,29.12,SW,225,3.8,3.8,60,0.00,,---,0.00,VWS V14.01,2013-02-23 23:00:00,
2013-02-23 17:05:00,31.1,18.9,29.12,West,270,7.4,7.4,60,0.00,,---,0.00,VWS V14.01,2013-02-23 23:05:00,
2013-02-23 17:10:00,30.7,18.1,29.12,West,270,6.3,6.3,59,0.00,,---,0.00,VWS V14.01,2013-02-23 23:10:00,
2013-02-23 17:15:00,30.6,18.3,29.12,WSW,248,1.6,2.5,60,0.00,,---,0.00,VWS V14.01,2013-02-23 23:15:00,
2013-02-23 17:20:00,30.4,18.2,29.14,West,270,3.4,3.4,60,0.00,,---,0.00,VWS V14.01,2013-02-23 23:20:00,
2013-02-23 17:25:00,30.0,17.8,29.14,West,270,2.5,4.9,60,0.00,,---,0.00,VWS V14.01,2013-02-23 23:25:00,
2013-02-23 17:30:00,29.8,17.7,29.14,West,270,3.6,4.3,60,0.00,,---,0.00,VWS V14.01,2013-02-23 23:30:00,
2013-02-23 17:35:00,29.5,17.3,29.14,WNW,292,2.0,4.0,60,0.00,,---,0.00,VWS V14.01,2013-02-23 23:35:00,
2013-02-23 17:40:00,29.5,17.3,29.14,WSW,248,3.8,3.8,60,0.00,,---,0.00,VWS V14.01,2013-02-23 23:40:00,
2013-02-23 17:45:00,29.5,17.7,29.14,West,270,3.1,3.1,61,0.00,,---,0.00,VWS V14.01,2013-02-23 23:45:00,
2013-02-23 17:50:00,29.3,17.5,29.14,West,270,3.6,3.6,61,0.00,,---,0.00,VWS V14.01,2013-02-23 23:50:00,
2013-02-23 17:55:00,29.1,17.4,29.14,West,270,3.8,3.8,61,0.00,,---,0.00,VWS V14.01,2013-02-23 23:55:00,
2013-02-23 18:00:00,28.9,17.2,29.14,WSW,248,2.0,4.0,61,0.00,,---,0.00,VWS V14.01,2013-02-24 00:00:00,
2013-02-23 18:05:00,28.8,17.0,29.14,WSW,248,0.0,1.6,61,0.00,,---,0.00,VWS V14.01,2013-02-24 00:05:00,
2013-02-23 18:10:00,28.6,16.9,29.14,WSW,248,2.5,2.7,61,0.00,,---,0.00,VWS V14.01,2013-02-24 00:10:00,
2013-02-23 18:15:00,28.4,16.7,29.14,WSW,248,1.1,1.1,61,0.00,,---,0.00,VWS V14.01,2013-02-24 00:15:00,
2013-02-23 18:20:00,28.4,16.7,29.14,West,270,1.6,1.6,61,0.00,,---,0.00,VWS V14.01,2013-02-24 00:20:00,
2013-02-23 18:25:00,28.0,16.7,29.14,West,270,2.5,5.4,62,0.00,,---,0.00,VWS V14.01,2013-02-24 00:25:00,
2013-02-23 18:30:00,28.0,16.7,29.14,WSW,248,1.6,3.4,62,0.00,,---,0.00,VWS V14.01,2013-02-24 00:30:00,
2013-02-23 18:35:00,27.9,16.5,29.14,WSW,248,2.5,2.7,62,0.00,,---,0.00,VWS V14.01,2013-02-24 00:35:00,
2013-02-23 18:40:00,27.9,16.5,29.14,WSW,248,1.1,2.0,62,0.00,,---,0.00,VWS V14.01,2013-02-24 00:40:00,
2013-02-23 18:46:00,27.7,16.4,29.14,WSW,248,1.3,1.3,62,0.00,,---,0.00,VWS V14.01,2013-02-24 00:46:00,
2013-02-23 18:51:00,27.7,16.4,29.14,WSW,248,1.3,1.6,62,0.00,,---,0.00,VWS V14.01,2013-02-24 00:51:00,
2013-02-23 18:56:00,27.5,16.2,29.14,West,270,0.0,2.9,62,0.00,,---,0.00,VWS V14.01,2013-02-24 00:56:00,
2013-02-23 19:01:00,27.5,16.6,29.14,West,270,0.0,0.0,63,0.00,,---,0.00,VWS V14.01,2013-02-24 01:01:00,
2013-02-23 19:06:00,27.3,16.4,29.14,West,270,0.0,0.0,63,0.00,,---,0.00,VWS V14.01,2013-02-24 01:06:00,
2013-02-23 19:11:00,27.1,16.2,29.14,West,270,0.0,0.0,63,0.00,,---,0.00,VWS V14.01,2013-02-24 01:11:00,
2013-02-23 19:16:00,27.1,16.2,29.14,West,270,0.0,0.0,63,0.00,,---,0.00,VWS V14.01,2013-02-24 01:16:00,
2013-02-23 19:21:00,27.0,16.1,29.14,West,270,0.0,0.0,63,0.00,,---,0.00,VWS V14.01,2013-02-24 01:21:00,
2013-02-23 19:26:00,26.8,16.2,29.14,West,270,0.0,0.0,64,0.00,,---,0.00,VWS V14.01,2013-02-24 01:26:00,
2013-02-23 19:31:00,26.6,16.1,29.14,West,270,0.0,0.0,64,0.00,,---,0.00,VWS V14.01,2013-02-24 01:31:00,
2013-02-23 19:36:00,26.4,15.9,29.14,West,270,0.0,0.0,64,0.00,,---,0.00,VWS V14.01,2013-02-24 01:36:00,
2013-02-23 19:41:00,26.4,15.9,29.14,West,270,0.0,0.0,64,0.00,,---,0.00,VWS V14.01,2013-02-24 01:41:00,
2013-02-23 19:46:00,26.2,15.7,29.14,West,270,0.0,0.0,64,0.00,,---,0.00,VWS V14.01,2013-02-24 01:46:00,
2013-02-23 19:51:00,26.1,15.6,29.14,West,270,0.0,0.0,64,0.00,,---,0.00,VWS V14.01,2013-02-24 01:51:00,
2013-02-23 19:56:00,25.9,15.4,29.14,West,270,0.0,0.0,64,0.00,,---,0.00,VWS V14.01,2013-02-24 01:56:00,
2013-02-23 20:01:00,25.9,15.8,29.14,West,270,0.0,0.0,65,0.00,,---,0.00,VWS V14.01,2013-02-24 02:01:00,
2013-02-23 20:06:00,25.7,15.9,29.14,West,270,0.0,0.0,66,0.00,,---,0.00,VWS V14.01,2013-02-24 02:06:00,
2013-02-23 20:11:00,25.5,15.8,29.14,West,270,0.0,0.0,66,0.00,,---,0.00,VWS V14.01,2013-02-24 02:11:00,
2013-02-23 20:16:00,25.3,15.6,29.14,West,270,0.0,0.0,66,0.00,,---,0.00,VWS V14.01,2013-02-24 02:16:00,
2013-02-23 20:21:00,25.2,15.4,29.14,West,270,0.0,0.0,66,0.00,,---,0.00,VWS V14.01,2013-02-24 02:21:00,
2013-02-23 20:26:00,25.2,15.8,29.14,West,270,0.0,0.0,67,0.00,,---,0.00,VWS V14.01,2013-02-24 02:26:00,
2013-02-23 20:31:00,25.0,15.6,29.14,West,270,1.6,1.6,67,0.00,,---,0.00,VWS V14.01,2013-02-24 02:31:00,
2013-02-23 20:36:00,24.8,15.4,29.14,West,270,0.0,0.0,67,0.00,,---,0.00,VWS V14.01,2013-02-24 02:36:00,
2013-02-23 20:41:00,24.8,15.4,29.14,WSW,248,0.0,0.0,67,0.00,,---,0.00,VWS V14.01,2013-02-24 02:41:00,
2013-02-23 20:46:00,24.8,15.4,29.14,WSW,248,1.6,1.6,67,0.00,,---,0.00,VWS V14.01,2013-02-24 02:46:00,
2013-02-23 20:51:00,24.6,15.2,29.14,WSW,248,0.0,0.0,67,0.00,,---,0.00,VWS V14.01,2013-02-24 02:51:00,
2013-02-23 20:56:00,24.4,15.1,29.14,WSW,248,0.0,0.0,67,0.00,,---,0.00,VWS V14.01,2013-02-24 02:56:00,
2013-02-23 21:01:00,24.4,15.1,29.14,WSW,248,0.0,0.0,67,0.00,,---,0.00,VWS V14.01,2013-02-24 03:01:00,
2013-02-23 21:07:00,24.4,15.1,29.14,WSW,248,0.0,0.0,67,0.00,,---,0.00,VWS V14.01,2013-02-24 03:07:00,
2013-02-23 21:12:00,24.3,14.9,29.14,WSW,248,1.1,1.1,67,0.00,,---,0.00,VWS V14.01,2013-02-24 03:12:00,
2013-02-23 21:17:00,24.3,14.9,29.14,WSW,248,0.0,0.0,67,0.00,,---,0.00,VWS V14.01,2013-02-24 03:17:00,
2013-02-23 21:22:00,24.1,14.7,29.14,WSW,248,0.0,0.0,67,0.00,,---,0.00,VWS V14.01,2013-02-24 03:22:00,
2013-02-23 21:27:00,24.1,14.7,29.14,WSW,248,0.0,0.0,67,0.00,,---,0.00,VWS V14.01,2013-02-24 03:27:00,
2013-02-23 21:32:00,24.1,14.7,29.14,WSW,248,1.3,1.3,67,0.00,,---,0.00,VWS V14.01,2013-02-24 03:32:00,
2013-02-23 21:37:00,23.9,14.6,29.14,West,270,0.0,0.0,67,0.00,,---,0.00,VWS V14.01,2013-02-24 03:37:00,
2013-02-23 21:42:00,23.7,14.4,29.14,West,270,0.0,0.0,67,0.00,,---,0.00,VWS V14.01,2013-02-24 03:42:00,
2013-02-23 21:47:00,23.5,14.2,29.14,West,270,0.0,0.0,67,0.00,,---,0.00,VWS V14.01,2013-02-24 03:47:00,
2013-02-23 21:52:00,23.4,14.0,29.14,West,270,0.0,0.0,67,0.00,,---,0.00,VWS V14.01,2013-02-24 03:52:00,
2013-02-23 21:57:00,23.2,13.9,29.14,West,270,0.0,0.0,67,0.00,,---,0.00,VWS V14.01,2013-02-24 03:57:00,
2013-02-23 22:02:00,22.8,13.9,29.14,West,270,0.0,0.0,68,0.00,,---,0.00,VWS V14.01,2013-02-24 04:02:00,
2013-02-23 22:07:00,22.6,13.7,29.17,West,270,0.0,0.0,68,0.00,,---,0.00,VWS V14.01,2013-02-24 04:07:00,
2013-02-23 22:12:00,22.5,13.5,29.17,West,270,0.0,0.0,68,0.00,,---,0.00,VWS V14.01,2013-02-24 04:12:00,
2013-02-23 22:18:00,22.3,13.3,29.17,West,270,0.0,0.0,68,0.00,,---,0.00,VWS V14.01,2013-02-24 04:18:00,
2013-02-23 22:23:00,22.1,13.2,29.14,West,270,0.0,0.0,68,0.00,,---,0.00,VWS V14.01,2013-02-24 04:23:00,
2013-02-23 22:28:00,21.9,13.3,29.14,West,270,0.0,0.0,69,0.00,,---,0.00,VWS V14.01,2013-02-24 04:28:00,
2013-02-23 22:33:00,22.1,13.5,29.14,West,270,0.0,0.0,69,0.00,,---,0.00,VWS V14.01,2013-02-24 04:33:00,
2013-02-23 22:38:00,21.9,13.3,29.14,West,270,0.0,0.0,69,0.00,,---,0.00,VWS V14.01,2013-02-24 04:38:00,
2013-02-23 22:43:00,21.9,13.3,29.14,West,270,0.0,0.0,69,0.00,,---,0.00,VWS V14.01,2013-02-24 04:43:00,
2013-02-23 22:48:00,21.6,13.0,29.14,West,270,0.0,0.0,69,0.00,,---,0.00,VWS V14.01,2013-02-24 04:48:00,
2013-02-23 22:53:00,21.6,13.0,29.17,West,270,0.0,0.0,69,0.00,,---,0.00,VWS V14.01,2013-02-24 04:53:00,
2013-02-23 22:58:00,21.6,13.0,29.17,West,270,0.0,0.0,69,0.00,,---,0.00,VWS V14.01,2013-02-24 04:58:00,
2013-02-23 23:00:00,21.6,13.0,29.17,West,270,0.0,0.0,69,0.00,,---,0.00,VWS V14.01,2013-02-24 05:00:00,
2013-02-23 23:01:00,21.6,13.0,29.17,West,270,0.0,0.0,69,0.00,,---,0.00,VWS V14.01,2013-02-24 05:01:00,
2013-02-23 23:06:00,21.6,13.3,29.17,West,270,0.0,0.0,70,0.00,,---,0.00,VWS V14.01,2013-02-24 05:06:00,
2013-02-23 23:11:00,21.6,13.3,29.14,West,270,0.0,0.0,70,0.00,,---,0.00,VWS V14.01,2013-02-24 05:11:00,
2013-02-23 23:16:00,21.6,13.3,29.14,West,270,0.0,0.0,70,0.00,,---,0.00,VWS V14.01,2013-02-24 05:16:00,
2013-02-23 23:21:00,21.7,13.5,29.17,West,270,0.0,0.0,70,0.00,,---,0.00,VWS V14.01,2013-02-24 05:21:00,
2013-02-23 23:26:00,21.7,13.5,29.17,West,270,0.0,0.0,70,0.00,,---,0.00,VWS V14.01,2013-02-24 05:26:00,
2013-02-23 23:31:00,21.7,13.8,29.17,West,270,0.0,0.0,71,0.00,,---,0.00,VWS V14.01,2013-02-24 05:31:00,
2013-02-23 23:36:00,21.7,13.5,29.14,West,270,0.0,0.0,70,0.00,,---,0.00,VWS V14.01,2013-02-24 05:36:00,
2013-02-23 23:41:00,21.7,13.5,29.14,West,270,0.0,0.0,70,0.00,,---,0.00,VWS V14.01,2013-02-24 05:41:00,
2013-02-23 23:46:00,21.6,13.3,29.14,West,270,0.0,0.0,70,0.00,,---,0.00,VWS V14.01,2013-02-24 05:46:00,
2013-02-23 23:51:00,21.4,13.1,29.14,West,270,0.0,0.0,70,0.00,,---,0.00,VWS V14.01,2013-02-24 05:51:00,
2013-02-23 23:56:00,21.4,13.1,29.14,West,270,0.0,0.0,70,0.00,,---,0.00,VWS V14.01,2013-02-24 05:56:00,